Welcome to the New NWS' Forecast!
Most changes are behind the scenes, but click here for differences you might notice.

Regional Weather Roundup (RWR)

Issued by Key West, FL (KEY)

                            
559 
ASUS42 KKEY 201210
RWRKEY

FLORIDA REGIONAL WEATHER ROUNDUP FOR THE FLORIDA KEYS
NATIONAL WEATHER SERVICE KEY WEST FLORIDA
800 AM EDT MON AUG 20 2018

...SOUTH FLORIDA AND THE KEYS...
  
CITY           SKY/WX    TMP DP  RH WIND       PRES   REMARKS
FORT MYERS     FAIR      74  72  93 E5        30.07R                  
SW REGIONAL AP FAIR      74  71  91 NE5       30.08R                  
NAPLES         NOT AVBL                                               
MIAMI          FAIR      83  78  85 SE6       30.07R HX  93           
WEST KENDALL   FAIR      81  77  88 CALM      30.06R                  
HOMESTEAD      FAIR      82  76  82 E5        30.06R HX  90           
MARATHON       FAIR      84  76  76 E9        30.05R HX  93           
KEY WEST INTL  MOSUNNY   82  75  78 E9        30.04R                  

...INTERNATIONAL WEATHER...
  
CITY           SKY/WX    TMP DP  RH WIND       PRES   REMARKS
NASSAU BAHAMAS MOSUNNY   82  73  74 E8        30.08S                  
CANCUN MEXICO  PTCLDY    82  79  89 NE5       29.97S HX  93           
COZUMEL MEXICO PTCLDY    77  77 100 CALM      29.95R                  

ADJACENT COASTAL WATERS...
  
STATION/POSITION TIME  SKY/WX   TEMP    WIND        PRES    WAVE
                                AIR SEA DIR/SP/G            HT/PER
                 (UTC)          (F)     (DEG/KT/KT) (MB)    (FT/S)
PULASKI SHOAL LI 1200            84     110/ 11/ 12 1017.8R
SAND KEY         1150            84                 1017.0R
SOMBRERO KEY     1150            84      80/ 12/ 14 1016.8R
LONG KEY         1100            84 86  120/ 12/ 13 1017.1R
MOLASSES REEF    1200            84 85  130/ 12/ 14 1018.2
FOWEY ROCKS      1200            84 84  110/ 14/ 15 1018.7R
Buoy 42097       1000               86                N/A     1/ 4

$$